This demonstration page uses our WeatherBlox Daily Observations layout. Learn more.

Left ArrowRight Arrow

44.89941, -97.11507

Hourly Observations for April 19, 2016

Temp ( °F °C ) Dew Point ( °F °C ) Humidity (%) Winds ( mph kmh ) Pressure ( in mb ) Visibility ( mi km ) Precip ( " mm )
12:16 am 00:16 Cloudy 46 7.8 43 6.1 89 89 W 3 6 30.21 1023 10 16 0.00 0.00
12:53 am 00:53 Cloudy with Mist and Fog 46 7.8 43 6.1 89 89 W 6 9 30.19 1022 4 6 0.00 0.00
1:21 am 01:21 Cloudy 46 7.8 44 6.7 93 93 W 3 6 30.21 1023 7 11 0.00 0.03
1:41 am 01:41 Cloudy with Light Rain 46 7.8 44 6.7 93 93 W 5 7 30.21 1023 3 5 0.01 0.25
1:53 am 01:53 Cloudy with Light Rain 45 7.2 43 6.1 93 93 W 8 13 30.19 1023 4 6 0.02 0.51
2:34 am 02:34 Cloudy 45 7.2 43 6.1 93 93 W 6 9 30.21 1023 9 14 0.00 0.03
2:53 am 02:53 Cloudy 45 7.2 42 5.6 90 90 W 7 11 30.20 1023 9 14 0.00 0.03
3:04 am 03:04 Cloudy 44 6.7 42 5.6 93 93 WSW 9 15 30.21 1023 8 13 0.00 0.00
3:15 am 03:15 Cloudy 44 6.7 42 5.6 93 93 WSW 7 11 30.21 1023 7 11 0.00 0.00
3:53 am 03:53 Cloudy with Mist and Fog 44 6.7 42 5.6 93 93 WSW 7 11 30.20 1023 5 8 0.00 0.00
3:59 am 03:59 Cloudy with Mist and Fog 43 6.1 42 5.6 97 97 WSW 7 11 30.21 1023 3 4 0.00 0.00
4:11 am 04:11 Cloudy with Mist and Fog 43 6.1 41 5 93 93 W 6 9 30.21 1023 4 6 0.00 0.00
4:53 am 04:53 Cloudy 43 6.1 41 5 93 93 W 5 7 30.20 1023 9 14 0.00 0.00
5:31 am 05:31 Cloudy with Mist and Fog 43 6.1 41 5 93 93 W 6 9 30.21 1023 2 3 0.00 0.00
5:39 am 05:39 Cloudy with Mist and Fog 43 6.1 41 5 93 93 W 6 9 30.21 1023 2 3 0.00 0.00
5:53 am 05:53 Cloudy with Mist and Fog 42 5.6 41 5 96 96 W 6 9 30.20 1023 2 2 0.00 0.00
6:28 am 06:28 Cloudy with Mist and Fog 43 6.1 41 5 93 93 NNW 6 9 30.21 1023 2 3 0.00 0.00
6:53 am 06:53 Cloudy with Mist and Fog 43 6.1 41 5 93 93 N 6 9 30.18 1022 1 2 0.00 0.00
7:21 am 07:21 Cloudy with Mist and Fog 43 6.1 42 5.6 97 97 NNW 5 7 30.21 1023 2 2 0.00 0.00
7:42 am 07:42 Cloudy with Mist and Fog 44 6.7 42 5.6 93 93 NNW 5 7 30.21 1023 1 2 0.00 0.00
7:50 am 07:50 Cloudy with Mist and Fog 45 7 43 6 93 93 NNW 5 7 30.21 1023 1 1 0.00 0.00
7:53 am 07:53 Cloudy with Mist and Fog 44 6.7 42 5.6 93 93 NNW 5 7 30.19 1022 1 1 0.00 0.00
8:53 am 08:53 Cloudy with Fog 45 7.2 43 6.1 93 93 NNW 5 7 30.21 1023 1 1 0.00 0.00
9:06 am 09:06 Cloudy with Mist and Fog 45 7.2 44 6.7 97 97 NNW 5 7 30.21 1023 1 2 0.00 0.00
9:19 am 09:19 Cloudy with Mist and Fog 45 7.2 44 6.7 97 97 NW 3 6 30.21 1023 2 3 0.00 0.00
9:31 am 09:31 Cloudy with Mist and Fog 46 7.8 44 6.7 93 93 Calm 30.21 1023 3 4 0.00 0.00
9:45 am 09:45 Cloudy with Mist and Fog 46 7.8 44 6.7 93 93 NW 5 7 30.21 1023 2 3 0.00 0.00
9:53 am 09:53 Cloudy with Mist and Fog 46 7.8 45 7.2 96 96 WNW 3 6 30.22 1023 2 3 0.00 0.00
10:09 am 10:09 Cloudy with Mist and Fog 46 7.8 45 7.2 96 96 WNW 3 6 30.21 1023 1 2 0.00 0.00
10:17 am 10:17 Cloudy with Mist and Fog 46 7.8 45 7.2 96 96 VRB 3 6 30.21 1023 2 3 0.00 0.00
10:50 am 10:50 Cloudy with Mist and Fog 46 8 45 7 93 93 Calm 30.21 1023 1 2 0.00 0.00
10:53 am 10:53 Cloudy with Mist and Fog 47 8.3 45 7.2 93 93 Calm 30.22 1023 1 2 0.00 0.00
11:00 am 11:00 Cloudy with Mist and Fog 47 8.3 45 7.2 93 93 Calm 30.21 1023 2 2 0.00 0.00
11:14 am 11:14 Cloudy with Mist and Fog 48 8.9 46 7.8 93 93 WSW 3 6 30.18 1022 2 3 0.00 0.00
11:26 am 11:26 Cloudy with Mist and Fog 48 8.9 46 7.8 93 93 W 7 11 30.18 1022 3 5 0.00 0.00
11:37 am 11:37 Cloudy with Mist and Fog 48 8.9 46 7.8 93 93 W 6 9 30.18 1022 3 4 0.00 0.00
11:45 am 11:45 Cloudy with Mist and Fog 48 8.9 46 7.8 93 93 W 6 9 30.18 1022 4 6 0.00 0.00
11:53 am 11:53 Cloudy with Mist and Fog 48 8.9 46 7.8 93 93 Calm 30.21 1023 4 6 0.00 0.00
12:53 pm 12:53 Cloudy 50 10 47 8.3 89 89 Calm 30.19 1023 9 14 0.00 0.00
1:53 pm 13:53 Cloudy 54 12.2 48 8.9 80 80 N 5 7 30.18 1022 10 16 0.00 0.00
2:27 pm 14:27 Cloudy 54 12.2 48 8.9 80 80 VRB 3 6 30.15 1021 10 16 0.00 0.00
2:53 pm 14:53 Cloudy 55 12.8 48 8.9 77 77 ENE 3 6 30.17 1022 10 16 0.00 0.00
3:53 pm 15:53 Cloudy 54 12.2 49 9.4 83 83 E 6 9 30.17 1022 10 16 0.00 0.00
4:34 pm 16:34 Cloudy with Mist and Fog 52 11.1 49 9.4 89 89 E 3 6 30.15 1021 3 5 0.00 0.00
4:42 pm 16:42 Cloudy with Mist and Fog 52 11.1 49 9.4 89 89 E 5 7 30.15 1021 3 4 0.00 0.00
4:53 pm 16:53 Cloudy with Mist and Fog 52 11.1 49 9.4 89 89 E 5 7 30.16 1022 3 4 0.00 0.00
5:06 pm 17:06 Cloudy with Mist and Fog 52 11.1 50 10 93 93 E 6 9 30.15 1021 2 2 0.00 0.00
5:17 pm 17:17 Cloudy with Mist and Fog 52 11.1 50 10 93 93 E 6 9 30.12 1020 2 3 0.00 0.00
5:32 pm 17:32 Cloudy with Mist and Fog 52 11.1 50 10 93 93 ENE 5 7 30.12 1020 3 5 0.00 0.00
5:53 pm 17:53 Cloudy with Mist and Fog 53 11.7 50 10 89 89 NE 7 11 30.14 1021 3 5 0.00 0.00
6:29 pm 18:29 Cloudy 53 11.7 50 10 89 89 ENE 5 7 30.12 1020 10 16 0.00 0.00
6:53 pm 18:53 Cloudy 53 11.7 50 10 89 89 ENE 5 7 30.15 1021 10 16 0.00 0.00
7:08 pm 19:08 Cloudy 53 11.7 49 9.4 86 86 E 5 7 30.12 1020 9 14 0.00 0.00
7:49 pm 19:49 Cloudy 52 11 48 9 88 88 ESE 5 7 30.12 1020 7 11 0.00 0.00
7:53 pm 19:53 Cloudy 52 11.1 49 9.4 89 89 ESE 5 7 30.15 1021 7 11 0.00 0.00
8:18 pm 20:18 Cloudy 52 11.1 49 9.4 89 89 SE 3 6 30.12 1020 8 13 0.00 0.00
8:53 pm 20:53 Cloudy with Mist and Fog 52 11.1 49 9.4 89 89 E 7 11 30.15 1021 4 6 0.00 0.00
9:33 pm 21:33 Cloudy 51 10.6 49 9.4 92 92 ENE 6 9 30.12 1020 8 13 0.00 0.00
9:53 pm 21:53 Cloudy 52 11.1 49 9.4 89 89 Calm 30.15 1021 9 14 0.00 0.00
10:49 pm 22:49 Partly Cloudy 48 9 46 8 94 94 NE 7 11 30.12 1020 7 11 0.00 0.00
10:53 pm 22:53 Mostly Clear 49 9.4 46 7.8 90 90 NE 6 9 30.14 1021 7 11 0.00 0.00
11:10 pm 23:10 Mostly Clear with Mist and Fog 48 8.9 46 7.8 93 93 NE 5 7 30.12 1020 5 8 0.00 0.00
11:22 pm 23:22 Clear with Mist and Fog 48 8.9 46 7.8 93 93 Calm 30.12 1020 2 3 0.00 0.00
11:26 pm 23:26 Mostly Cloudy with Mist and Fog 47 8.3 45 7.2 93 93 Calm 30.12 1020 1 1 0.00 0.00
11:41 pm 23:41 Mostly Clear with Mist and Fog 48 8.9 46 7.8 93 93 Calm 30.12 1020 1 2 0.00 0.00
11:47 pm 23:47 Mostly Cloudy with Mist and Fog 46 8 45 7 93 93 Calm 30.09 1019 1 1 0.00 0.00
11:53 pm 23:53 Mostly Cloudy with Fog 47 8.3 45 7.2 93 93 ESE 3 6 30.12 1020 1 1 0.00 0.00
11:59 pm 23:59 Clear with Mist and Fog 47 8.3 46 7.8 97 97 Calm 30.09 1019 1 2 0.00 0.00

Powered by AerisWeather